Location: Newark
(41.8083°N, 72.2500°W)
Time: 03:12:36
(UTC+00:00)

Tiros 1 despin weight - All Passes

Search period start: 28 November 2021 00:00
Search period end: 08 December 2021 00:00
Orbit: 593 x 641 km, 48.2° (Epoch: 27 November)

Date Brightness Start Highest point End Pass type
(mag) Time Alt. Az. Time Alt. Az. Time Alt. Az.
28 Nov - 01:08:29 10° WNW 01:12:56 69° NNE 01:17:25 10° ESE visible
28 Nov - 02:50:21 10° W 02:54:13 29° SW 02:58:07 10° SSE night (unlit)
28 Nov - 18:38:55 10° S 18:42:11 20° SE 18:45:27 10° E daylight
28 Nov - 20:18:52 10° WSW 20:23:17 87° NNW 20:27:42 10° ENE daylight
28 Nov - 22:01:02 10° WNW 22:05:09 38° N 22:09:19 10° ENE visible
28 Nov - 23:43:08 10° WNW 23:47:20 41° NNE 23:51:35 10° E visible
29 Nov - 01:24:39 10° WNW 01:29:07 74° SSW 01:33:35 10° SE visible
29 Nov - 03:07:26 10° W 03:10:04 15° SW 03:12:43 10° S night (unlit)
29 Nov - 18:54:00 10° SSW 18:58:05 38° SE 19:02:10 10° ENE daylight
29 Nov - 20:35:10 10° W 20:39:30 57° NNW 20:43:52 10° ENE daylight
29 Nov - 22:17:31 10° WNW 22:21:35 35° N 22:25:41 10° ENE visible
29 Nov - 23:59:20 10° WNW 00:03:41 55° NNE 00:08:04 10° E visible
30 Nov - 01:40:58 10° WNW 01:45:10 41° SW 01:49:23 10° SSE night (unlit)
30 Nov - 17:31:00 10° SSE 17:33:13 14° SE 17:35:27 10° ESE daylight
30 Nov - 19:09:44 10° SW 19:14:07 69° SSE 19:18:30 10° ENE daylight
30 Nov - 20:51:38 10° W 20:55:50 42° NNW 21:00:04 10° ENE daylight
30 Nov - 22:33:53 10° WNW 22:38:00 37° N 22:42:09 10° ENE visible
01 Dec - 00:15:29 10° WNW 00:19:55 82° NNE 00:24:24 10° ESE visible
01 Dec - 01:57:36 10° W 02:01:05 23° SW 02:04:35 10° S night (unlit)
01 Dec - 17:45:21 10° SSW 17:49:03 26° SE 17:52:44 10° E daylight
01 Dec - 19:25:52 10° WSW 19:30:17 73° NNW 19:34:42 10° ENE daylight
01 Dec - 21:08:09 10° WNW 21:12:15 36° N 21:16:21 10° ENE daylight
01 Dec - 22:50:08 10° WNW 22:54:24 45° NNE 22:58:40 10° E visible
02 Dec - 00:31:41 10° WNW 00:36:03 59° SSW 00:40:26 10° SE visible
02 Dec - 02:15:24 10° WSW 02:16:53 11° SW 02:18:22 10° SSW night (unlit)
02 Dec - 18:00:44 10° SW 18:05:00 48° SE 18:09:15 10° ENE daylight
02 Dec - 19:42:14 10° W 19:46:33 50° NNW 19:50:51 10° ENE daylight
02 Dec - 21:24:35 10° WNW 21:28:40 35° N 21:32:45 10° ENE daylight
02 Dec - 23:06:18 10° WNW 23:10:42 63° NNE 23:15:06 10° ESE visible
03 Dec - 00:48:05 10° WNW 00:52:03 32° SW 00:56:02 10° SSE visible
03 Dec - 16:37:02 10° S 16:40:03 18° SE 16:43:03 10° E daylight
03 Dec - 18:16:38 10° WSW 18:21:05 85° SSE 18:25:30 10° ENE daylight
03 Dec - 19:58:45 10° W 20:02:54 39° N 20:07:03 10° ENE daylight
03 Dec - 21:40:55 10° WNW 21:45:04 39° N 21:49:15 10° E visible
03 Dec - 23:22:28 10° WNW 23:26:54 82° SSW 23:31:21 10° ESE visible
04 Dec - 01:04:58 10° W 01:07:55 17° SW 01:10:52 10° S visible
04 Dec - 16:51:55 10° SSW 16:55:56 34° SE 16:59:54 10° ENE daylight
04 Dec - 18:32:53 10° WSW 18:37:17 62° NNW 18:41:39 10° ENE daylight
04 Dec - 20:15:15 10° WNW 20:19:19 35° N 20:23:23 10° ENE daylight
04 Dec - 21:57:07 10° WNW 22:01:26 51° NNE 22:05:45 10° E visible
04 Dec - 23:38:43 10° WNW 23:42:58 47° SW 23:47:13 10° SE visible
05 Dec - 15:29:25 10° SSE 15:31:05 12° SE 15:32:44 10° ESE daylight
05 Dec - 17:07:32 10° SW 17:11:55 61° SSE 17:16:17 10° ENE daylight
05 Dec - 18:49:20 10° W 18:53:35 44° NNW 18:57:49 10° ENE daylight
05 Dec - 20:31:39 10° WNW 20:35:45 36° N 20:39:51 10° ENE daylight
05 Dec - 22:13:17 10° WNW 22:17:42 75° NNE 22:22:07 10° ESE visible
05 Dec - 23:55:15 10° W 23:58:54 25° SW 00:02:34 10° SSE visible
06 Dec - 15:43:21 10° S 15:46:53 23° SE 15:50:24 10° E daylight
06 Dec - 17:23:36 10° WSW 17:28:03 80° NNW 17:32:29 10° ENE daylight
06 Dec - 19:05:51 10° WNW 19:09:58 37° N 19:14:05 10° ENE daylight
06 Dec - 20:47:55 10° WNW 20:52:08 43° NNE 20:56:21 10° E daylight
06 Dec - 22:29:28 10° WNW 22:33:50 67° SSW 22:38:13 10° SE visible
07 Dec - 00:12:37 10° WSW 00:14:44 13° SW 00:16:49 10° SSW visible
07 Dec - 15:58:35 10° SW 16:02:48 43° SE 16:07:00 10° ENE daylight
07 Dec - 17:39:56 10° W 17:44:17 53° NNW 17:48:37 10° ENE daylight
07 Dec - 19:22:18 10° WNW 19:26:23 35° N 19:30:27 10° ENE daylight
07 Dec - 21:04:05 10° WNW 21:08:27 58° NNE 21:12:48 10° E daylight
07 Dec - 22:45:48 10° WNW 22:49:51 37° SW 22:53:55 10° SSE visible
